Change the Weather History Date:

Wednesday, February 26, 2014

  Actual Average Record
Temperature  
Mean Temperature 44 °F -  
Max Temperature 52 °F 64 °F 77 °F (1999)
Min Temperature 36 °F 43 °F 30 °F (2015)
Degree Days  
Heating Degree Days 20    
Moisture  
Dew Point 38 °F    
Average Humidity 82    
Maximum Humidity 94    
Minimum Humidity 54    
Precipitation  
Precipitation 0.24 in - - ()
Sea Level Pressure  
Sea Level Pressure 29.98 in    
Wind  
Wind Speed 8 mph (NNW)    
Max Wind Speed 21 mph    
Max Gust Speed 26 mph    
Visibility 9 miles    
Events Rain    
Averages and records for this station are not official NWS values.
T = Trace of Precipitation, MM = Missing Value Source: NWS Daily Summary

Daily Weather History Graph

Daily Weather History Graph

Search for Another Location

Airport or City:

Trip Planner

Search our weather history database for the weather conditions in past years. The results will help you decide how hot, cold, wet, or windy it might be!

Date:

Astronomy

Feb. 26, 2014 Rise Set
Actual Time 6:16 AM CST 5:40 PM CST
Civil Twilight 5:51 AM CST 6:05 PM CST
Nautical Twilight 5:23 AM CST 6:33 PM CST
Astronomical Twilight 4:54 AM CST 7:02 PM CST
Moon 3:54 AM CST (2/26) 3:00 PM CST (2/26)
Length of Visible Light 12h 13m
Length of Day
11h 24m
Waning Crescent, 10% of the Moon is Illuminated
Feb 26
Waning Crescent
Mar 1
New
Mar 8
First Quarter
Mar 16
Full
Mar 23
Last Quarter

Hourly Weather History & Observations

Time (CST) Temp. Windchill Dew Point Humidity Pressure Visibility Wind Dir Wind Speed Gust Speed Precip Events Conditions
12:58 AM 52.7 °F - 46.0 °F 78% 29.92 in 10.0 mi Calm Calm - N/A   Scattered Clouds
1:03 AM 51.8 °F - 46.4 °F 82% 29.91 in 10.0 mi NE 1.2 mph - N/A Rain Light Rain
1:40 AM 50.0 °F - 48.2 °F 94% 29.91 in 10.0 mi Calm Calm - N/A   Mostly Cloudy
1:58 AM 50.9 °F - 49.1 °F 94% 29.91 in 10.0 mi NW 1.2 mph - 0.02 in   Overcast
2:03 AM 50.0 °F - 48.2 °F 94% 29.90 in 10.0 mi Calm Calm - N/A   Light Drizzle
2:58 AM 50.9 °F - 49.3 °F 94% 29.92 in 4.0 mi NW 4.6 mph - 0.04 in Rain Rain
3:23 AM 50.0 °F - 48.2 °F 94% 29.90 in 7.0 mi North 6.9 mph - N/A Rain Light Rain
3:58 AM 49.3 °F - 47.5 °F 94% 29.92 in 10.0 mi North 9.2 mph - 0.05 in Rain Light Rain
4:08 AM 48.2 °F - 46.4 °F 93% 29.91 in 10.0 mi North 8.1 mph - N/A Rain Light Rain
4:13 AM 48.2 °F - 46.4 °F 93% 29.91 in 10.0 mi North 6.9 mph - N/A Rain Light Rain
4:28 AM 48.2 °F - 46.4 °F 93% 29.91 in 7.0 mi North 10.4 mph - N/A Rain Light Rain
4:58 AM 46.4 °F 41.5 °F 44.6 °F 93% 29.95 in 10.0 mi North 10.4 mph - 0.02 in Rain Light Rain
5:00 AM 46.4 °F 40.7 °F 44.6 °F 93% 29.94 in 10.0 mi North 12.7 mph - N/A   Overcast
5:05 AM 46.4 °F 40.7 °F 44.6 °F 93% 29.95 in 10.0 mi NNW 12.7 mph - N/A   Overcast
5:15 AM 46.4 °F 38.7 °F 42.8 °F 87% 29.96 in 10.0 mi NNW 20.7 mph 25.3 mph N/A   Overcast
5:32 AM 44.6 °F 38.4 °F 41.0 °F 87% 29.98 in 10.0 mi NNW 12.7 mph 25.3 mph N/A Rain Light Rain
5:52 AM 42.8 °F 34.5 °F 39.2 °F 87% 30.00 in 6.0 mi North 18.4 mph 26.5 mph N/A   Overcast
5:57 AM 41.0 °F 33.1 °F 39.2 °F 93% 29.99 in 4.0 mi North 15.0 mph 26.5 mph N/A   Overcast
5:58 AM 41.0 °F 33.1 °F 39.2 °F 93% 30.00 in 4.0 mi North 15.0 mph 26.5 mph 0.06 in   Overcast
6:03 AM 41.0 °F 34.3 °F 39.2 °F 93% 29.98 in 5.0 mi North 11.5 mph - N/A   Overcast
6:18 AM 41.0 °F 33.1 °F 39.2 °F 93% 29.98 in 10.0 mi North 15.0 mph - N/A Rain Light Rain
6:58 AM 41.2 °F 35.5 °F 39.4 °F 93% 29.99 in 10.0 mi NNE 9.2 mph - 0.03 in Rain Light Rain
7:17 AM 41.0 °F 35.2 °F 39.2 °F 93% 29.99 in 10.0 mi NNE 9.2 mph - N/A   Overcast
7:27 AM 41.0 °F 35.2 °F 39.2 °F 93% 30.00 in 10.0 mi North 9.2 mph 19.6 mph N/A   Overcast
7:30 AM 41.0 °F 34.7 °F 39.2 °F 93% 30.00 in 10.0 mi North 10.4 mph 19.6 mph N/A Rain Light Rain
7:55 AM 41.0 °F 33.1 °F 39.2 °F 93% 30.03 in 10.0 mi North 15.0 mph - N/A Rain Light Rain
7:58 AM 41.2 °F 34.1 °F 39.0 °F 92% 30.04 in 10.0 mi North 12.7 mph - 0.01 in Rain Light Rain
8:08 AM 41.0 °F 33.9 °F 39.2 °F 93% 30.04 in 10.0 mi North 12.7 mph - N/A Rain Light Rain
8:13 AM 41.0 °F 32.8 °F 37.4 °F 87% 30.03 in 10.0 mi North 16.1 mph - N/A Rain Light Rain
8:23 AM 41.0 °F 33.1 °F 37.4 °F 87% 30.03 in 10.0 mi North 15.0 mph - N/A Rain Light Rain
8:30 AM 41.0 °F 33.9 °F 37.4 °F 87% 30.03 in 10.0 mi North 12.7 mph - N/A   Overcast
8:53 AM 41.0 °F 35.8 °F 37.4 °F 87% 30.04 in 10.0 mi North 8.1 mph - N/A Rain Light Rain
8:58 AM 41.0 °F 35.8 °F 37.4 °F 87% 30.05 in 10.0 mi North 8.1 mph - 0.01 in Rain Light Rain
9:05 AM 41.0 °F 35.2 °F 37.4 °F 87% 30.03 in 10.0 mi North 9.2 mph - N/A   Overcast
9:20 AM 41.0 °F 35.2 °F 37.4 °F 87% 30.02 in 10.0 mi North 9.2 mph - N/A   Overcast
9:25 AM 41.0 °F 34.7 °F 37.4 °F 87% 30.02 in 10.0 mi North 10.4 mph - N/A   Overcast
9:58 AM 40.6 °F 34.3 °F 35.2 °F 81% 30.03 in 10.0 mi North 10.4 mph - 0.00 in   Overcast
10:58 AM 40.5 °F 33.2 °F 35.2 °F 82% 30.00 in 10.0 mi North 12.7 mph - N/A   Overcast
11:58 AM 40.5 °F 33.6 °F 32.4 °F 73% 29.99 in 10.0 mi NNW 11.5 mph - N/A   Overcast
12:58 PM 43.7 °F 37.3 °F 31.8 °F 63% 29.97 in 10.0 mi NNW 12.7 mph - N/A   Overcast
1:23 PM 44.6 °F 37.8 °F 32.0 °F 61% 29.94 in 10.0 mi NNW 15.0 mph - N/A   Overcast
1:28 PM 44.6 °F 38.4 °F 32.0 °F 61% 29.94 in 10.0 mi NNW 12.7 mph - N/A   Mostly Cloudy
1:58 PM 44.2 °F 38.4 °F 28.9 °F 55% 29.95 in 10.0 mi North 11.5 mph - N/A   Mostly Cloudy
3:58 PM 43.2 °F 37.0 °F 27.7 °F 54% 29.94 in 10.0 mi NW 11.5 mph - N/A   Overcast
4:58 PM 43.0 °F 38.2 °F 28.4 °F 56% 29.95 in 10.0 mi NNW 8.1 mph - N/A   Overcast
5:58 PM 41.4 °F 38.4 °F 28.0 °F 59% 29.96 in 10.0 mi WNW 4.6 mph - N/A   Clear
6:58 PM 40.6 °F 33.0 °F 27.7 °F 60% 29.99 in 10.0 mi NW 13.8 mph - N/A   Partly Cloudy
7:58 PM 39.6 °F 34.0 °F 26.4 °F 59% 30.00 in 10.0 mi NNW 8.1 mph - N/A   Partly Cloudy
8:58 PM 39.0 °F 33.4 °F 24.8 °F 57% 29.99 in 10.0 mi NNW 8.1 mph - N/A   Clear
9:58 PM 37.9 °F 33.5 °F 25.5 °F 61% 30.01 in 10.0 mi NW 5.8 mph - N/A   Clear
10:58 PM 37.2 °F 33.6 °F 25.9 °F 64% 30.00 in 10.0 mi NW 4.6 mph - N/A   Clear
11:58 PM 36.3 °F 32.5 °F 26.4 °F 67% 30.01 in 10.0 mi WNW 4.6 mph - N/A   Clear